sat.trackr.live / text

‹ back to catalog

STARLINK-34627

NORAD 65016 · 2025-161B

PAYLOAD ACTIVE UNKNOWN

§ Identity

Operator
Country
US
Launch date
2025-07-30
Launch site
AFWTR
Launch vehicle
Mass (kg)
RCS (m²)

Purposes: comms

External: N2YO · Heavens-Above · Gunter

§ Orbital elements

Epoch: 2026-05-24T19:30:52.185600Z

Period
94.11 min
Inclination
53.1595°
Eccentricity
0.0000802
Mean motion
15.30201536 rev/d
Perigee alt
474.7 km
Apogee alt
475.8 km
Semi-major
6,853.3 km
B*
6.3541e-4
RAAN
300.6927°
Arg perigee
97.1319°
Mean anomaly
262.9773°
Rev number
4,709

§ Raw data

STARLINK-346271 65016U 25161B   26144.81310400  .00018508  00000+0  63541-3 0  99902 65016  53.1595 300.6927 0000802  97.1319 262.9773 15.30201536 47097

JSON: /api/v1/satellites/65016 · /tle

For live sub-satellite position, see the globe view (requires WebGL).

§ Visibility from observer

Set your observer location to see the next 7 days of passes ≥ 10°. The values pass through the URL so the page stays shareable.

No JS? Fill the form by hand. The geolocation button needs JavaScript.